Weather History for Tucumcari, NM

Change the Weather History Date:

Saturday, September 21, 2013

  Actual Average Record
Temperature  
Mean Temperature 70 °F -  
Max Temperature 81 °F 79 °F 98 °F (1956)
Min Temperature 59 °F 54 °F 35 °F (1983)
Cooling Degree Days 4    
Growing Degree Days 20 (Base 50)    
Moisture  
Dew Point 57 °F    
Average Humidity 68    
Maximum Humidity 87    
Minimum Humidity 43    
Precipitation  
Precipitation 0.00 in - - ()
Sea Level Pressure  
Sea Level Pressure 29.91 in    
Wind  
Wind Speed 9 mph (SW)    
Max Wind Speed 18 mph    
Max Gust Speed 23 mph    
Visibility 10 miles    
Events      
Averages and records for this station are not official NWS values.
T = Trace of Precipitation, MM = Missing Value Source: NWS Daily Summary

Daily Weather History Graph

Daily Weather History Graph

Search for Another Location

Airport:

Trip Planner

Search our weather history database for the weather conditions in past years. The results will help you decide how hot, cold, wet, or windy it might be!

Date:

Astronomy

Sep. 21, 2013 Rise Set
Actual Time 6:41 AM MDT 6:52 PM MDT
Civil Twilight 6:16 AM MDT 7:17 PM MDT
Nautical Twilight 5:46 AM MDT 7:47 PM MDT
Astronomical Twilight 5:16 AM MDT 8:17 PM MDT
Moon 8:12 PM MDT (9/21) 8:56 AM MDT (9/21)
Length of Visible Light 13h 00m
Length of Day
12h 10m
Waning Gibbous, 94% of the Moon is Illuminated
Sep 21
Waning Gibbous
Sep 26
Last Quarter
Oct 4
New
Oct 11
First Quarter
Oct 18
Full

Hourly Weather History & Observations

Time (MDT) Temp. Heat Index Dew Point Humidity Pressure Visibility Wind Dir Wind Speed Gust Speed Precip Events Conditions
12:53 AM 64.0 °F - 57.9 °F 80% 30.03 in 10.0 mi SW 3.5 mph - N/A   Overcast
1:53 AM 63.0 °F - 57.9 °F 84% 30.02 in 10.0 mi SW 5.8 mph - N/A   Overcast
2:53 AM 64.0 °F - 57.9 °F 80% 30.00 in 10.0 mi WSW 4.6 mph - N/A   Overcast
3:53 AM 62.1 °F - 57.0 °F 84% 29.99 in 10.0 mi West 6.9 mph - N/A   Clear
4:53 AM 61.0 °F - 55.9 °F 83% 29.99 in 10.0 mi SW 6.9 mph - N/A   Scattered Clouds
5:53 AM 60.1 °F - 55.9 °F 86% 29.99 in 9.0 mi SW 5.8 mph - N/A   Overcast
6:53 AM 59.0 °F - 55.0 °F 87% 29.99 in 7.0 mi SW 6.9 mph - N/A   Clear
7:53 AM 62.1 °F - 57.0 °F 84% 29.99 in 7.0 mi SW 6.9 mph - N/A   Clear
8:53 AM 64.9 °F - 57.0 °F 75% 29.99 in 8.0 mi SSW 16.1 mph - N/A   Clear
9:53 AM 69.1 °F - 57.9 °F 68% 29.98 in 10.0 mi SW 16.1 mph - N/A   Scattered Clouds
10:53 AM 70.0 °F - 57.9 °F 65% 29.96 in 10.0 mi SW 15.0 mph - N/A   Mostly Cloudy
11:12 AM 71.6 °F - 57.2 °F 60% 30.10 in 10.0 mi SW 15.0 mph - N/A   Scattered Clouds
11:53 AM 73.0 °F - 59.0 °F 61% 29.94 in 10.0 mi SW 17.3 mph - N/A   Scattered Clouds
12:53 PM 75.0 °F - 59.0 °F 57% 29.90 in 10.0 mi SSW 16.1 mph - N/A   Partly Cloudy
1:53 PM 78.1 °F - 59.0 °F 52% 29.86 in 10.0 mi SW 16.1 mph 23.0 mph N/A   Clear
2:53 PM 80.1 °F 80.6 °F 57.9 °F 47% 29.83 in 10.0 mi SW 13.8 mph - N/A   Clear
3:53 PM 80.1 °F 80.4 °F 57.0 °F 45% 29.81 in 10.0 mi SSW 18.4 mph - N/A   Clear
4:53 PM 80.1 °F 80.2 °F 55.9 °F 43% 29.79 in 10.0 mi SSW 15.0 mph - N/A   Clear
5:53 PM 78.1 °F - 57.0 °F 48% 29.79 in 10.0 mi SSW 13.8 mph - N/A   Clear
6:53 PM 73.0 °F - 57.9 °F 59% 29.81 in 10.0 mi South 9.2 mph - N/A   Clear
7:53 PM 69.1 °F - 57.9 °F 68% 29.81 in 10.0 mi South 8.1 mph - N/A   Clear
8:53 PM 68.0 °F - 57.0 °F 68% 29.81 in 10.0 mi SSW 11.5 mph - N/A   Clear
9:53 PM 69.1 °F - 55.9 °F 63% 29.81 in 10.0 mi SSW 13.8 mph - N/A   Clear
10:53 PM 64.9 °F - 55.9 °F 73% 29.82 in 10.0 mi SW 6.9 mph - N/A   Clear
11:53 PM 64.9 °F - 55.0 °F 70% 29.81 in 10.0 mi SW 6.9 mph - N/A   Clear